Weather History for Nasa Shuttle, FL

Change the Weather History Date:

Tuesday, July 9, 2013

  Actual Average Record
Temperature  
Mean Temperature 78 °F -  
Max Temperature 87 °F 85 °F 96 °F (1998)
Min Temperature 69 °F 70 °F 69 °F (2013)
Cooling Degree Days 13    
Growing Degree Days 28 (Base 50)    
Moisture  
Dew Point 73 °F    
Average Humidity 89    
Maximum Humidity 100    
Minimum Humidity 61    
Precipitation  
Precipitation 0.00 in - - ()
Sea Level Pressure  
Sea Level Pressure 30.14 in    
Wind  
Wind Speed 5 mph (ENE)    
Max Wind Speed 12 mph    
Max Gust Speed 18 mph    
Visibility 6 miles    
Events Rain    
Averages and records for this station are not official NWS values.
T = Trace of Precipitation, MM = Missing Value Source: NWS Daily Summary

Daily Weather History Graph

Daily Weather History Graph

Search for Another Location

Airport:

Trip Planner

Search our weather history database for the weather conditions in past years. The results will help you decide how hot, cold, wet, or windy it might be!

Date:

Astronomy

Jul. 09, 2013 Rise Set
Actual Time 6:32 AM EDT 8:23 PM EDT
Civil Twilight 6:05 AM EDT 8:50 PM EDT
Nautical Twilight 5:33 AM EDT 9:22 PM EDT
Astronomical Twilight 4:59 AM EDT 9:56 PM EDT
Moon 7:44 AM EDT (7/9) 9:13 PM EDT (7/9)
Length of Visible Light 14h 45m
Length of Day
13h 51m
New Moon, 2% of the Moon is Illuminated
Jul 9
New Moon
Jul 15
First Quarter
Jul 22
Full
Jul 29
Last Quarter
Aug 6
New

Hourly Weather History & Observations

Time (EDT) Temp. Heat Index Dew Point Humidity Pressure Visibility Wind Dir Wind Speed Gust Speed Precip Events Conditions
12:04 AM 73.4 °F - 73.4 °F 100% 30.18 in 1.2 mi East 4.6 mph - N/A   Light Drizzle
12:09 AM 73.4 °F - 73.4 °F 100% 30.17 in 1.0 mi East 4.6 mph - N/A Rain Light Rain
12:14 AM 73.4 °F - 73.4 °F 100% 30.17 in 1.0 mi East 4.6 mph - N/A   Clear
12:19 AM 73.4 °F - 73.4 °F 100% 30.17 in 1.8 mi East 4.6 mph - N/A   Clear
12:24 AM 73.4 °F - 73.4 °F 100% 30.17 in 3.0 mi East 5.8 mph - N/A   Clear
12:58 AM 74.8 °F - 74.5 °F 99% 30.17 in 10.0 mi East 2.3 mph - 0.00 in   Clear
1:58 AM 72.7 °F - 72.5 °F 99% 30.16 in 10.0 mi East 4.6 mph - N/A   Clear
2:58 AM 72.7 °F - 72.3 °F 99% 30.14 in 9.0 mi ESE 3.5 mph - N/A   Clear
3:38 AM 71.6 °F - 71.6 °F 100% 30.12 in 2.5 mi ESE 3.5 mph - N/A   Clear
3:43 AM 71.6 °F - 71.6 °F 100% 30.12 in 4.0 mi ESE 2.3 mph - N/A   Clear
3:53 AM 71.6 °F - 71.6 °F 100% 30.12 in 2.0 mi NNW 1.2 mph - N/A   Clear
3:58 AM 71.1 °F - 70.7 °F 99% 30.13 in 2.5 mi Calm Calm - N/A   Clear
4:03 AM 69.8 °F - 69.8 °F 100% 30.12 in 5.0 mi Calm Calm - N/A   Clear
4:28 AM 71.6 °F - 71.6 °F 100% 30.12 in 1.5 mi NE 2.3 mph - N/A   Clear
4:38 AM 71.6 °F - 71.6 °F 100% 30.12 in 2.0 mi NE 2.3 mph - N/A   Clear
4:43 AM 71.6 °F - 71.6 °F 100% 30.12 in 4.0 mi ENE 3.5 mph - N/A   Clear
4:48 AM 71.6 °F - 71.6 °F 100% 30.12 in 2.5 mi ENE 3.5 mph - N/A   Clear
4:53 AM 71.6 °F - 71.6 °F 100% 30.12 in 3.0 mi ENE 2.3 mph - N/A   Clear
4:58 AM 71.6 °F - 71.6 °F 100% 30.13 in 4.0 mi Calm Calm - N/A   Clear
5:53 AM 69.8 °F - 69.8 °F 100% 30.13 in 2.0 mi East 3.5 mph - N/A   Clear
5:58 AM 70.7 °F - 70.7 °F 100% 30.14 in 1.0 mi East 4.6 mph - N/A   Clear
6:03 AM 71.6 °F - 71.6 °F 100% 30.13 in 1.2 mi East 4.6 mph - N/A   Clear
6:08 AM 71.6 °F - 71.6 °F 100% 30.13 in 1.0 mi ENE 4.6 mph - N/A   Clear
6:13 AM 71.6 °F - 71.6 °F 100% 30.13 in 0.8 mi ENE 3.5 mph - N/A   Clear
6:18 AM 73.4 °F - 73.4 °F 100% 30.13 in 1.2 mi NE 2.3 mph - N/A   Clear
6:23 AM 73.4 °F - 73.4 °F 100% 30.13 in 3.0 mi NE 2.3 mph - N/A   Clear
6:43 AM 71.6 °F - 71.6 °F 100% 30.14 in 2.0 mi NE 3.5 mph - N/A   Clear
6:48 AM 71.6 °F - 71.6 °F 100% 30.14 in 3.0 mi NE 3.5 mph - N/A   Clear
6:58 AM 71.4 °F - 71.4 °F 100% 30.15 in 1.0 mi ENE 3.5 mph - N/A   Clear
7:03 AM 71.6 °F - 71.6 °F 100% 30.14 in 0.8 mi ENE 3.5 mph - N/A   Clear
7:08 AM 73.4 °F - 73.4 °F 100% 30.14 in 3.0 mi NE 2.3 mph - N/A   Clear
7:58 AM 77.0 °F - 77.0 °F 100% 30.16 in 10.0 mi Calm Calm - N/A   Clear
8:58 AM 80.8 °F 87.1 °F 76.3 °F 86% 30.18 in 10.0 mi ENE 5.8 mph - N/A   Clear
9:58 AM 83.3 °F 89.3 °F 72.9 °F 71% 30.18 in 10.0 mi NE 9.2 mph - N/A   Clear
10:58 AM 85.1 °F 92.2 °F 73.6 °F 68% 30.19 in 10.0 mi ENE 9.2 mph - N/A   Scattered Clouds
11:38 AM 84.2 °F 90.9 °F 73.4 °F 70% 30.18 in 10.0 mi NE 11.5 mph - N/A   Mostly Cloudy
11:43 AM 84.2 °F 90.9 °F 73.4 °F 70% 30.18 in 10.0 mi NE 11.5 mph - N/A   Scattered Clouds
11:58 AM 85.6 °F 93.4 °F 74.1 °F 68% 30.19 in 10.0 mi NE 9.2 mph 18.4 mph N/A   Scattered Clouds
12:58 PM 86.5 °F 95.5 °F 74.8 °F 68% 30.19 in 10.0 mi NE 10.4 mph 16.1 mph N/A   Mostly Cloudy
1:03 PM 86.0 °F 95.1 °F 75.2 °F 70% 30.18 in 10.0 mi ENE 10.4 mph - N/A   Mostly Cloudy
1:13 PM 87.8 °F 95.6 °F 73.4 °F 62% 30.18 in 10.0 mi ENE 10.4 mph - N/A   Mostly Cloudy
1:53 PM 84.2 °F 90.9 °F 73.4 °F 70% 30.16 in 10.0 mi NE 10.4 mph - N/A   Light Drizzle
1:58 PM 84.6 °F 91.7 °F 73.8 °F 70% 30.17 in 10.0 mi ENE 9.2 mph - 0.00 in Rain Light Rain
2:08 PM 82.4 °F 87.2 °F 71.6 °F 70% 30.16 in 10.0 mi ENE 8.1 mph - N/A   Mostly Cloudy
2:58 PM 86.7 °F 94.6 °F 73.8 °F 65% 30.16 in 10.0 mi East 10.4 mph - 0.00 in   Mostly Cloudy
3:21 PM 86.0 °F 95.1 °F 75.2 °F 70% 30.14 in 10.0 mi ENE 10.4 mph - N/A   Light Drizzle
3:31 PM 86.0 °F 95.1 °F 75.2 °F 70% 30.14 in 10.0 mi East 10.4 mph - N/A   Partly Cloudy
3:58 PM 85.6 °F 94.2 °F 75.0 °F 70% 30.13 in 10.0 mi East 8.1 mph - 0.00 in   Scattered Clouds
4:58 PM 83.5 °F 88.2 °F 70.9 °F 66% 30.11 in 10.0 mi East 9.2 mph - N/A   Scattered Clouds
5:58 PM 84.7 °F 89.1 °F 70.2 °F 61% 30.11 in 10.0 mi East 6.9 mph - N/A   Clear
6:58 PM 83.5 °F 89.1 °F 72.5 °F 69% 30.11 in 10.0 mi ENE 6.9 mph - N/A   Clear
7:58 PM 80.6 °F 85.2 °F 73.0 °F 78% 30.11 in 10.0 mi ENE 5.8 mph - N/A   Clear
8:58 PM 77.0 °F - 73.8 °F 90% 30.11 in 10.0 mi NNE 4.6 mph - N/A   Partly Cloudy
9:58 PM 75.6 °F - 74.3 °F 96% 30.12 in 10.0 mi ENE 3.5 mph - N/A   Clear
10:58 PM 74.7 °F - 73.4 °F 96% 30.12 in 10.0 mi ENE 4.6 mph - N/A   Clear
11:58 PM 73.2 °F - 72.7 °F 98% 30.12 in 10.0 mi NE 4.6 mph - N/A   Clear